軌道要素
Epoch 2019 Apr. 27.0 TT = JDT 2458600.5
T 2019 Apr. 29.74115 TT Rudenko
q 7.5642827 (2000.0) P Q
z +0.0005787 Peri. 224.55767 -0.44337915 -0.78477338
+/-0.0000019 Node 256.42661 +0.89508150 -0.36211758
e 0.9956224 Incl. 26.45587 +0.04737129 -0.50299265
From 296 observations 2016 Nov. 26-2020 Mar. 23, mean residual 0".8.
|